Location: Unspecified
(0.0000°N, 0.0000°E)
Time: 01:50:40
(UTC+00:00)

Tiros 1 - Pass Details

Date: 25 April 2026
Orbit: 618 x 648 km, 48.4° (Epoch: 15 May)

Event Time Altitude Azimuth Distance (km) Brightness Sun altitude
Exits shadow 05:25:11 - 274° (W) 2,089 9.2 -8.0°
Reaches altitude 10° 05:25:43 10° 280° (W) 1,977 9.1 -7.9°
Maximum altitude 05:27:59 14° 310° (NW) 1,744 9.0 -7.3°
Drops below altitude 10° 05:30:15 10° 340° (NNW) 1,968 9.6 -6.8°
Sets 05:33:38 0° 7° (N) 2,868 10.8 -5.9°
